Regional Weather Roundup
Issued by NWS Charleston, SC

Current Version | Previous Version | Graphics & Text | Print | Product List | Glossary On
Versions: 1 2 3 4 5 6 7 8 9 10 11 12 13 14 15 16 17 18 19 20 21 22 23 24 25 26 27 28 29 30 31 32 33 34 35 36 37 38 39 40 41 42 43 44 45 46 47 48 49 50
000
ASUS42 KCHS 201425
RWRCHS

REGIONAL WEATHER ROUNDUP
NATIONAL WEATHER SERVICE CHARLESTON SC
1000 AM EDT MON OCT 20 2014

NOTE: "FAIR" INDICATES FEW OR NO CLOUDS BELOW 12,000 FEET WITH NO
SIGNIFICANT WEATHER AND/OR OBSTRUCTIONS TO VISIBILITY.

NOT ALL STATIONS ARE QUALITY CONTROLLED BY THE NATIONAL
WEATHER SERVICE. USE DATA WITH CAUTION...ESPECIALLY
DEWPOINT OBSERVATIONS.

SCZ027-030-031-034>040-042>050-201500-
...SOUTH CAROLINA...

CITY           SKY/WX    TMP DP  RH WIND       PRES   REMARKS
N CHARLESTON   SUNNY     68  53  58 NE3       30.15S
WATERFRONT PRK   N/A     66 N/A N/A N8          N/A
FORT JOHNSON   NOT AVBL
JOHNS ISLAND   SUNNY     70  57  64 CALM      30.14F
PINOPOLIS        N/A     66  54  63 E2        30.06F
MONCKS CORNER  FAIR      66  55  68 CALM      30.15S
SUMMERVILLE    FAIR      61  55  82 CALM      30.16S
BEAUFORT MCAS  MOSUNNY   67  54  63 NE6       30.14S
BEAUFORT ARPT  FAIR      68  55  64 NE8       30.13S
HILTON HEAD IS SUNNY     68  59  73 NE7       30.14S
GEORGETOWN     NOT AVBL
WALTERBORO     MOSUNNY   66  48  52 NE6       30.15S
ORANGEBURG     SUNNY     61  50  67 E3        30.15S
BARNWELL       FAIR      59  52  77 CALM      30.16S
AIKEN          FAIR      63  52  67 S3        30.17F
MANNING        FAIR      63  55  77 CALM      30.15F
KINGSTREE      NOT AVBL
COLUMBIA       SUNNY     56  48  74 CALM      30.15S
SUMTER         SUNNY     60  51  72 CALM      30.14S
FLORENCE       SUNNY     60  49  66 SE3       30.16S
MYRTLE BEACH   SUNNY     64  48  55 N8        30.17R
N MYRTLE BEACH SUNNY     64  47  53 NE6       30.16S

$$

GAZ063-065-086>088-099>101-113>116-118-119-134-136>141-150-201500-
...GEORGIA...

CITY           SKY/WX    TMP DP  RH WIND       PRES   REMARKS
SAVANNAH ARPT  MOSUNNY   68  54  60 NE6       30.14R
HUNTER AAF     MOSUNNY   67  58  72 NE5       30.11S
FORT STEWART   SUNNY     64  53  69 NE3       30.12R
STATESBORO     NOT AVBL
SYLVANIA       MOSUNNY   66  58  73 CALM      30.15S
CLAXTON        FAIR      64  55  72 CALM      30.14S
THOMSON        SUNNY     64  59  86 CALM      30.18S
AUGUSTA-BUSH   SUNNY     54  51  90 CALM      30.15S
AUGUSTA-DANIEL SUNNY     61  52  72 CALM      30.15S
SWAINSBORO     FAIR      66  55  68 MISG      30.14S
VIDALIA        SUNNY     64  55  72 E5        30.14S HAZE
ALMA           SUNNY     63  54  72 E6        30.12R
WAYCROSS       SUNNY     67  61  80 E5        30.12F
JESUP          FAIR      68  59  73 E5        30.13S
BRUNSWICK      SUNNY     72  63  73 E3        30.12S
SAINT SIMONS   SUNNY     71  63  75 E7        30.11R

$$

SCZ027-028-034-036>038-045-046-048>050-GAZ119-141-201500-
...LAKE AND SUPPLEMENTAL COASTAL OBSERVATIONS...

STATION/POSITION TIME  TEMP    WIND        PRES    WAVE   SWELL
                       AIR SEA DIR/SP/G            HT/PER HT/PER/DIR
                 (UTC) (F)     (DEG/KT/KT) (MB)    (FT/S) (FT/S/D)
UPR LAKE MARION  NOT AVBL
WINYAH BAY       1400   64      30/  4     1021.0S
LAKE MURRAY      1300   63     160/  1/  4 1020.7R
ACE BASIN NERRS  1400   64      30/  3     1020.0S
FORT PULASKI     1400   68      70/ 10/ 14 1020.4R
SAPELO ISLAND    NOT AVBL

$$

ANZ835-935-AMZ111-154-330-350-352-354-374-450-454-472-201500-
...C-MAN AND BUOY OBSERVATIONS...

STATION/POSITION TIME  TEMP    WIND        PRES    WAVE   SWELL
                       AIR SEA DIR/SP/G            HT/PER HT/PER/DIR
                 (UTC) (F)     (DEG/KT/KT) (MB)    (FT/S) (FT/S/D)
FOLLY BEACH CMAN 1400   67      10/  7/  9 1021.0R
BUOY 41004       1400   72 79   80/  8/ 10 1020.2R   3/ 8   3/ 8
BUOY 41008       1400   73 76   80/ 12/ 14 1019.6R   2/12   2/ 80/12
5E ST. MARYS GA  1400      77                N/A     3/13   2/100/13
FRYING PAN BUOY  1400   68 75   40/  6/  8 1022.0R   2/ 8   2/ 90/ 8
BUOY 41025       1400   65     320/  6/  8 1022.0F   4/11   3/ 50/11
CAPE LOOKOUT NC  1400   63     360/  7/  9 1021.6F
BUOY 41002       1256   71 80   40/  8/ 10 1021.8R   4/10   3/ 40/10
BUOY 41010       1400   78 80   80/ 14/ 17 1018.3R   4/ 8   3/ 40/ 8
BUOY 41012       NOT AVBL
ST AUGUSTINE FL  1400   76      90/  9/  9 1019.7R
CAPERS NEARSHORE 1300   68      30/ 12/ 14   N/A
FRIPP NEARSHORE  NOT AVBL


$$



USA.gov is the U.S. government's official web portal to all federal, state and local government web resources and services.